Location: *
(28.3744°N, 81.5492°W)
Time: 03:40:57
(UTC+00:00)

S3M - Pass Details

Date: 15 June 2025
Orbit: 949 x 1002 km, 83.0° (Epoch: 11 July)

Event Time Altitude Azimuth Distance (km) Brightness Sun altitude
Rises 09:21:07 0° 345° (NNW) 3,727 7.3 -13.5°
Reaches altitude 10° 09:23:47 10° 339° (NNW) 2,776 6.6 -13.0°
Maximum altitude 09:29:43 43° 270° (W) 1,377 4.4 -11.9°
Drops below altitude 10° 09:35:39 10° 201° (SSW) 2,755 5.9 -10.9°
Enters shadow 09:37:05 - 197° (SSW) 3,261 6.3 -10.6°
